Regional Weather Roundup
Issued by NWS

Home | Current Version | Previous Version | Text Only | Print | Product List | Glossary On
Versions: 1 2 3 4 5 6 7 8 9 10 11 12 13 14 15 16 17 18 19 20 21 22 23 24 25 26 27 28 29 30 31 32 33 34 35 36 37 38 39 40 41 42 43 44 45 46 47 48 49 50
000
ASUS43 KTOP 240259
RWRKS

WEATHER ROUNDUP FOR KANSAS
NATIONAL WEATHER SERVICE GOODLAND KS
900 PM CST THU FEB 23 2017

NOTE:  "FAIR" INDICATES FEW OR NO CLOUDS BELOW 12,000 FEET WITH NO
SIGNIFICANT WEATHER AND/OR OBSTRUCTIONS TO VISIBILITY.

KSZ001>006-013>018-027>032-041>047-240400-
NORTHWEST KANSAS

CITY           SKY/WX    TMP DP  RH WIND       PRES   REMARKS
GOODLAND       CLOUDY    25  23  92 N18       29.74R WCI  11
HAYS           CLOUDY    35  30  82 N25       29.65R WCI  23
HILL CITY      CLOUDY    33  30  88 N20G26    29.70R WCI  21
RUSSELL        CLOUDY    35  32  88 NW23      29.62R WCI  23
$$

KSZ061>065-074>080-084>089-240400-
SOUTHWEST KANSAS

CITY           SKY/WX    TMP DP  RH WIND       PRES   REMARKS
DODGE CITY     CLOUDY    35  31  85 N26G33    29.64R WCI  22
ELKHART          N/A     36  23  59 N15         N/A  WCI  27
GARDEN CITY    CLOUDY    33  28  81 N23G32    29.69R WCI  21
GREAT BEND     CLOUDY    38  32  79 N25G35    29.60R WCI  27
LIBERAL        CLOUDY    37  27  65 N18       29.68R WCI  27
$$

KSZ066>073-081>083-090>101-240400-
SOUTHEAST KANSAS

CITY           SKY/WX    TMP DP  RH WIND       PRES   REMARKS
CHANUTE        LGT RAIN  70  48  45 W6        29.35R
COFFEYVILLE    PTCLDY    74  46  36 S20G28    29.35S
HUTCHINSON     CLOUDY    41  36  82 N32G45    29.53R
MEDICINE LODGE   N/A     42  34  73 N26G37    29.52R
NEWTON         CLOUDY    44  38  79 NW32G38   29.47R
PARSONS        MOCLDY    74  44  34 S16G26    29.34F
WICHITA INTL   PTCLDY    45  38  76 NW28G44   29.46R
WICHITA JABRA  CLEAR     46  39  76 NW31G43   29.45R
WINFIELD       MOCLDY    66  45  46 W14       29.37R
$$

KSZ007>012-019>026-033>040-048>060-102>105-240400-
NORTHEAST KANSAS

CITY           SKY/WX    TMP DP  RH WIND       PRES   REMARKS
CONCORDIA      LGT RAIN  36  35  96 N13G24    29.59R WCI  27
EMPORIA        PTCLDY    51  46  83 N9        29.37R
LAWRENCE       CLEAR     48  44  86 NE7       29.39S
MANHATTAN      CLOUDY    46  38  73 N10G20    29.49R
OLATHE IND     CLEAR     51  46  83 E14       29.37F
OLATHE EXE     CLEAR     50  48  93 E12G20    29.38F
SALINA         CLOUDY    41  35  79 N28G40    29.57R
TOPEKA BILLARD CLEAR     46  44  93 N8        29.39F
TOPEKA FORBES  CLEAR     51  44  77 N12       29.39F
$$




USA.gov is the U.S. government's official web portal to all federal, state and local government web resources and services.